CZ-6A DEB

Satellite information

Favourite Embed

Satellite Type and Status

DEBRISIN ORBIT

Key statistics

Satellite CZ-6A DEB at a glance.

Uptime

1128

Days in orbit

Revolutions

≈ 14.1

Per day

Orbit

SSO

Sun Synchronous Orbit

Inclination

98.8

Latest

Satellite identification and parameters

Extended collection of information and parameters for CZ-6A DEB.

Object identification

Identified? True

Debris? True

Object name: CZ-6A DEB

International designator: 2022-151XL

Object number (NORAD): 55514

Object ID (CCSDS): 55514

Country: PEOPLES REPUBLIC OF CHINA (PRC)

Current information (Y/N): Y

RCS size: SMALL

Orbital parameters

Period: 101.892 minutes

Inclination: 98.8454 deg

SMA: 7226.362 km

Apoapsis: 907.648 km

Periapsis: 788.806 km

RAAN: 337.0298 deg

Eccentricy: 0.0082228

Argument of periapsis: 172.4238 deg

Mean anomaly: 187.8197 deg

Mean motion: 14.13263535 rev/day

Mean motion (dot): 0.00006409 rev/day2

B* drag term: 0.0033318 1/REarth

Two-line elements (TLE)

Creation date: Dec. 12, 2025, 7:16 a.m.

Reference frame: TEME

Reference center: EARTH

Epoch: Dec. 11, 2025, 10:17 p.m. UTC

TLE line 0: 0 CZ-6A DEB

TLE line 1: 1 55514U 22151XL 25345.92906745 .00006409 00000-0 33318-2 0 9991

TLE line 2: 2 55514 98.8454 337.0298 0082228 172.4238 187.8197 14.13263535154588

Live tracking on map

Real-time ground track for satellite CZ-6A DEB.

In-orbit conjunctions

A list of the most updated potential collisions computed for object CZ-6A DEB.

Target Orbit TCA Probability of collision Miss distance Type
DELTA 1 DEB SSO 2024-11-17 08:56:54 0.0001007374 126.0 (m) DEBRIS
METEOR 2-17 DEB LEO 2024-09-26 18:52:40 0.000380835 361.0 (m) DEBRIS
COSMOS 1266 LEO 2024-07-25 09:35:45 0.0001582424 503.0 (m) PAYLOAD
COSMOS 887 LEO 2024-06-20 07:26:32 0.0004314156 756.0 (m) PAYLOAD

Associated space launch

Chinese satellite reported for atmospheric/ocean/environmental/spatial parameter research purposes, details TBD.

CZ-6A DEB was lifted into orbit during the mission ‘Long March 6A | Yunhai 3’, on board a Long March 6A space rocket.

The launch took place on Nov. 11, 2022, 10:52 p.m. from Launch Complex 9A.

For more information about the launch, click the button.

Launch to space Long March 6A | Yunhai 3
Long March 6A | Yunhai 3

Agency: N/A

Status: Launch Successful

Launch date: Nov. 11, 2022, 10:52 p.m. UTC

Rocket: Long March 6A

Launch pad: Launch Complex 9A

Location: Taiyuan Satellite Launch Center, People's Republic of China

...

Latest news about this satellite

There are no fresh news available about this satellite. Check back as we update our databases every day.


Newsletter sign-up

Weekly statistics, charts and insights to help you stay on top of the space industry.